www.pogodaiklimat.ru

Погода и климат >> Архив погоды >> Катар >> Духан


ПОГОДА в Духане

  • Прогноз погоды в Духане
  • Монитор погоды в Духане

АРХИВ ПОГОДЫ в Духане

Время (UTC), дата Ветер
(напр.,м/с)
 
Видим.   Явления Облачность Т
(С)
Тd
(С)
f
(%)
Тe
(С)
Тes
(С)
Комфортность P
(гПа)
Po
(гПа)
Тmin
(С)
Tmax
(С)
R
(мм)
R24
(мм)
S
(см)
12 15.01 Ю 7 20 км н/о +25.0 +15.2 55 +28 +28 жарко 1015.7 1015.5
15 15.01 ЮВ 10 20 км н/о +24.4 +13.2 50 +27 +27 жарко 1016.4 1016.2
18 15.01 В 9 20 км н/о +21.1 +14.0 64 +24 +24 комфорт 1017.9 1017.7 +26.0
21 15.01 ЮВ 12 16 км н/о +19.9 +16.0 78 +21 +21 комфорт 1016.5 1016.3
00 16.01 ЮВ 12 15 км н/о +19.1 +15.5 80 +19 +19 1015.9 1015.7
03 16.01 Ю 5 15 км н/о +18.5 +15.2 81 +19 +19 1015.9 1015.7
06 16.01 Ю 11 19 км н/о +21.5 +16.3 72 +25 +25 комфорт 1017.7 1017.5 +17.7
09 16.01 ЮЗ 7 20 км н/о +22.7 +16.6 68 +27 +27 душно 1015.4 1015.2
12 16.01 Ю 12 20 км н/о +27.3 +12.4 40 +29 +29 жарко 1012.7 1012.5
15 16.01 ЮВ 7 20 км н/о +25.5 +8.7 34 +26 +26 жарко 1012.7 1012.5
18 16.01 ЮВ 13 20 км н/о +21.4 +14.6 65 +24 +24 комфорт 1013.1 1012.9 +27.7
21 16.01 ЮВ 12 19 км н/о +20.3 +16.0 76 +22 +22 комфорт 1012.9 1012.7
00 17.01 ЮВ 11 17 км н/о +19.5 +16.2 81 +21 +21 комфорт 1011.7 1011.5
03 17.01 Ю 11 12 км н/о +18.9 +16.2 84 +19 +19 1011.8 1011.6
06 17.01 Ю 13 20 км н/о +21.0 +15.0 69 +23 +23 комфорт 1014.5 1014.3 +18.5
09 17.01 ЮЗ 6 20 км н/о +23.4 +15.4 61 +28 +28 душно 1014.0 1013.8
12 17.01 С 28 1000 м н/о +20.5 +9.6 50 +20 +20 1014.5 1014.3
15 17.01 С 24 2000 м н/о +19.7 +5.8 40 +19 +19 1017.0 1016.8
18 17.01 С 20 3000 м н/о +18.7 +5.2 41 +17 +17 1018.7 1018.5 +24.1
21 17.01 С 19 4000 м н/о +17.1 +5.1 45 +15 +15 1019.0 1018.8
00 18.01 С 21 н/о н/о +16.3 +5.5 49 +13 +13 1018.3 1018.1
03 18.01 С 19 8000 м н/о +16.3 +7.2 55 +14 +14 1019.3 1019.1
06 18.01 С 20 11 км н/о +16.8 +8.5 58 +14 +14 1021.4 1021.2 +16.2
09 18.01 С 20 14 км н/о +17.3 +8.0 54 +15 +15 1020.1 1019.9
12 18.01 С 15 16 км н/о +17.9 +6.1 46 +16 +16 1018.3 1018.1
15 18.01 С 11 13 км н/о +17.4 +5.8 46 +16 +16 1019.3 1019.1
18 18.01 С 15 13 км н/о +16.6 +7.0 53 +14 +14 1020.0 1019.8 +18.9
21 18.01 С 18 12 км н/о +16.7 +7.1 53 +14 +14 1019.3 1019.1
00 19.01 С 21 13 км н/о +16.3 +6.4 52 +13 +13 1018.8 1018.6
03 19.01 С 21 12 км н/о +16.0 +7.9 59 +13 +13 1020.5 1020.3
06 19.01 С 19 20 км н/о +15.7 +7.8 59 +13 +13 1022.4 1022.2 +15.7
09 19.01 С 20 20 км н/о +16.3 +7.4 56 +13 +13 1021.3 1021.1
12 19.01 С 18 20 км н/о +16.6 +6.1 50 +14 +14 1019.8 1019.6
15 19.01 С 16 20 км н/о +16.0 +5.7 50 +13 +13 1021.0 1020.8
18 19.01 С 17 20 км н/о +15.2 +5.8 53 +12 +12 1022.2 1022.0 +16.9
21 19.01 С 16 20 км н/о +15.0 +5.7 54 +12 +12 1022.0 1021.8
00 20.01 С 19 20 км н/о +14.6 +6.5 58 +11 +11 1022.2 1022.0
03 20.01 С 19 20 км н/о +14.6 +7.8 64 +11 +11 1022.8 1022.6
06 20.01 СЗ 19 20 км н/о +14.2 +8.1 67 +10 +10 1025.0 1024.8 +13.6
09 20.01 СЗ 19 20 км н/о +15.2 +8.1 63 +12 +12 1023.7 1023.5
12 20.01 С 16 20 км н/о +16.3 +6.8 53 +14 +14 1021.6 1021.4
15 20.01 С 15 20 км н/о +15.9 +6.8 55 +13 +13 1021.9 1021.7
18 20.01 С 15 20 км н/о +15.4 +8.3 63 +13 +13 1023.2 1023.0 +16.3
21 20.01 С 16 20 км н/о +14.7 +7.6 62 +11 +11 1022.7 1022.5
00 21.01 СЗ 17 20 км н/о +14.5 +7.5 63 +11 +11 1022.0 1021.8
03 21.01 СЗ 19 20 км н/о +13.8 +8.6 71 +10 +10 1022.2 1022.0
06 21.01 СЗ 17 20 км н/о +14.5 +9.3 71 +11 +11 1023.8 1023.6 +13.8
09 21.01 СЗ 16 20 км н/о +15.8 +9.9 68 +13 +13 1021.5 1021.3
12 21.01 С 13 20 км н/о +16.8 +8.5 58 +15 +15 1019.7 1019.5
15 21.01 С 10 20 км н/о +16.4 +9.7 65 +15 +15 1020.3 1020.1
18 21.01 С 4 20 км н/о +14.5 +6.7 59 +13 +13 1020.6 1020.4 +17.1
21 21.01 С 5 20 км н/о +14.3 +8.1 66 +13 +13 1019.3 1019.1
00 22.01 С 8 20 км н/о +16.1 +7.5 57 +15 +15 1018.4 1018.2
03 22.01 СЗ 9 20 км н/о +15.1 +9.6 70 +13 +13 1019.0 1018.8
06 22.01 С 11 20 км н/о +16.3 +6.8 53 +14 +14 1020.4 1020.2 +14.0

 

Местоположение метеостанции Духан (Катар): широта 25.40 долгота 50.75 высота над уровнем моря 5 м.

В архиве по умолчанию представлена погода в Духане за последнюю неделю. Архивные данные за месяц целиком и за предыдущие месяцы, начиная с января 2011 года, Вы можете получить, выбрав интересующий диапазон дат из раскрывающегося списка и нажав кнопку "Ввод!".


*Определитесь, кто Вы:
робот инопланетянин человек

Внимание! Время в таблицах - всемирное. Для получения местного времени необходимо прибавить поправку, которая равна 4 ч.

Смотрите также архив погоды в соседних городах и на ближайших метеорологических станциях:

Погода в Абу Самба (Катар) (73 км)
Погода в Дохе (Катар) (84 км)
Погода в Аэропорту Хамад (Катар) (88 км)
Погода в Бахрейне (Бахрейн) (97 км)
Погода в Дахране (Саудовская Аравия) (113 км)
Погода в Аль-Ахсе (Саудовская Аравия) (128 км)
Погода в Аэропорту Король Фахд (Саудовская Аравия) (149 км)
Погода в Бендер-Дейере (Иран) (295 км)
Погода на Острове Киш (Иран) (345 км)
Погода на Острове Сирри (Иран) (385 км)

Пояснения к столбцам:

Ветер - указаны скорость ветра в м/с - средняя за 10 мин, порывы в срок и между сроками (в фигурных скобках) и направление, откуда дует ветер: С - северный, СВ - северо-восточный, В - восточный, ЮВ - юго-восточный, Ю - южный, ЮЗ - юго-западный, З - западный, СЗ - северо-западный.
Видимость - горизонтальная дальность видимости в метрах или километрах. При видимости от 1 до 10 км при отсутствии осадков обычно наблюдается дымка, при ухудшении видимости до 1 км и менее - туман. В сухую погоду видимость может ухудшаться дымом, пылью или мглою.
Явления - указаны атмосферные явления, наблюдавшиеся в срок или в последний час перед сроком; фигурными скобками обозначены явления, наблюдавшиеся между сроками (за 1-3 часа до срока); квадратными скобками обозначены град или гололедные отложения с указанием их диаметра в мм.
Облачность - указаны через наклонную черту общая и нижняя облачность в баллах и высота нижней границы облаков в метрах; квадратными скобками обозначены формы облаков: Ci - перистые, Cs - перисто-слоистые, Cc - перисто-кучевые, Ac - высококучевые, As - высокослоистые, Sc - слоисто-кучевые, Ns - слоисто-дождевые, Cu - кучевые, Cb - кучево-дождевые. Подробнее классификацию облаков см. в Атласе облаков (PDF).
T - Температура воздуха - температура, измеренная на высоте 2 м над землей.
Td - Температура точки росы - температура, при понижении до которой содержащийся в воздухе водяной пар достигнет насыщения.
f - Относительная влажность воздуха - влажноcть воздуха, измеренная на высоте 2 м над землей.
Te - Эффективная температура - температура, которую ощущает одетый по сезону человек в тени. Характеристика душности погоды. При расчете учитывается влияние влажности воздуха и скорости ветра на теплоощущения человека.
Tes - Эффективная температура на солнце - температура, которую ощущает человек, с поправкой на солнечный нагрев. Характеристика знойности погоды. Зависит от высоты солнца над горизонтом, облачности и скорости ветра. Ночью, в пасмурную погоду, а также при ветре 12 м/с и более поправка равна нулю.
P - Атмосферное давление - приведенное к уровню моря атмосферное давление.
Po - Атмосферное давление - измеренное на уровне метеостанции атмосферное давление.
Tmin - Минимальная температура - минимум температуры воздуха на высоте 2 м над землей.
Tmax - Максимальная температура - максимум температуры воздуха на высоте 2 м над землей.
R - Количество осадков - Количество выпавших осадков за период времени, мм. При наведении курсора мыши на число - период времени, за который выпало указанное количество осадков.
R24 - Количество осадков - Количество выпавших осадков за 24 часа, мм.
S - Снежный покров - Высота снежного покрова, см. При наведении курсора мыши на число - состояние снежного покрова и степень покрытия местности в баллах.